Home   Weather   Trebišov   Past weeks
Flag for Slovakia

Past Weather in Trebišov, Slovakia — Yesterday and Last 2 Weeks

Now
67 °F

Mild.


Feels Like: 67 °F
Forecast: 87 / 63 °F
Wind: N/A

Location: Milhostov

Current Time: Jul 21, 2019 at 12:32:17 am

Latest Report: Jul 20, 2019 at 11:00 pm


Visibility: N/A

Pressure: 30.08 "Hg

Humidity: 94%

Dew Point: 65 °F

Location of TrebišovLocation

Past Weather in Trebišov — Graph

°F

Trebišov Temperature Yesterday

Maximum temperature yesterday: 80 °F (at 3:00 pm)
Minimum temperature yesterday: 61 °F (at 5:00 am)
Average temperature yesterday: 70 °F

High & Low Weather Summary for the Past Weeks

 TemperatureHumidityPressure
High85 °F (Jul 6, 4:00 pm)96% (Jul 12, 4:00 am)30.10 "Hg (Jul 12, 4:00 am)
Low45 °F (Jul 12, 5:00 am)26% (Jul 16, 3:00 pm)29.65 "Hg (Jul 7, 3:00 pm)
Average65 °F65%29.89 "Hg
* Reported Jul 5 11:00 pm — Jul 20 11:00 pm, Trebišov. Weather by CustomWeather, © 2019

Note: Actual official high and low records may vary slightly from our data, if they occured in-between our weather recording intervals... More about our weather records

Advertising

Trebišov Weather History for the Previous 24 Hours

Scroll right to see more
 ConditionsComfort  
Time TempWeatherWind HumidityBarometerVisibility
11:00 pm
Sat, Jul 20
67 °FMild.N/A94%30.08 "HgN/A
10:00 pm68 °FPassing clouds.N/A91%30.08 "Hg12 mi
9:00 pm70 °FPassing clouds.No wind88%30.07 "Hg12 mi
8:00 pm72 °FPartly sunny.N/A82%30.06 "Hg25 mi
7:00 pm73 °FOvercast.N/A77%30.06 "Hg25 mi
6:00 pm74 °FOvercast.No wind67%30.06 "Hg22 mi
5:00 pm71 °FThunderstorms. Partly sunny.3 mph78%30.06 "Hg16 mi
4:00 pm78 °FThundershowers. Partly sunny.3 mph58%30.06 "Hg12 mi
3:00 pm80 °FPassing clouds.5 mph51%30.06 "Hg25 mi
2:00 pm80 °FScattered clouds.5 mph54%30.08 "Hg25 mi
1:00 pm77 °FOvercast.5 mph57%30.09 "Hg22 mi
12:00 pm76 °FOvercast.2 mph63%30.09 "Hg19 mi
11:00 am74 °FPartly sunny.N/A69%30.10 "Hg19 mi
10:00 am72 °FPartly sunny.2 mph70%30.09 "Hg16 mi
9:00 am68 °FPartly sunny.N/A82%30.09 "Hg22 mi
8:00 am65 °FOvercast.N/A88%30.09 "Hg22 mi
7:00 am64 °FMild.N/A91%30.07 "HgN/A
6:00 am61 °FCool.1 mph95%30.07 "HgN/A
5:00 am61 °FCool.N/A95%30.06 "HgN/A
4:00 am62 °FCool.N/A93%30.05 "HgN/A
3:00 am63 °FMild.N/A91%30.04 "HgN/A
2:00 am63 °FMild.N/A86%30.06 "HgN/A
1:00 am64 °FMild.N/A79%30.05 "HgN/A
12:00 am64 °FMild.N/A80%30.04 "HgN/A
Weather by CustomWeather, © 2019

See weather overview